KM6RDV Weather Reports


time (UTC)temp
C
wind
direction
speed
KPH
gust
KPH
rain 1hr
cm
rain 24hr
cm
rain mn
cm
humidity
%
barometer
mb
20260503211040 18 195 9.7 22.5 0.00 0.00 0.00 56 1015.7
20260503210017 18 212 8.0 17.7 0.00 0.00 0.00 58 1015.7
20260503205058 17 244 6.4 19.3 0.00 0.00 0.00 58 1015.7
20260503204021 17 215 6.4 20.9 0.00 0.00 0.00 59 1015.8
20260503203035 17 200 8.0 17.7 0.00 0.00 0.00 59 1015.9
20260503202018 17 224 6.4 16.1 0.00 0.00 0.00 61 1015.9
20260503201017 17 244 6.4 16.1 0.00 0.00 0.00 61 1015.9
20260503200026 17 218 8.0 17.7 0.00 0.00 0.00 59 1015.9
20260503195017 17 244 6.4 12.9 0.00 0.00 0.00 58 1016.0
20260503194026 17 240 6.4 14.5 0.00 0.00 0.00 58 1016.0
20260503193021 17 241 4.8 11.3 0.00 0.00 0.00 57 1016.2
20260503192037 17 227 6.4 17.7 0.00 0.00 0.00 58 1016.1
20260503191024 17 243 6.4 17.7 0.00 0.00 0.00 59 1016.1
20260503190020 17 254 4.8 9.7 0.00 0.00 0.00 58 1016.1
20260503185017 17 191 6.4 12.9 0.00 0.00 0.00 57 1016.0
20260503184019 17 215 4.8 11.3 0.00 0.00 0.00 61 1016.1
20260503183016 17 228 4.8 11.3 0.00 0.00 0.00 61 1016.1
20260503182017 16 192 8.0 19.3 0.00 0.00 0.00 64 1016.3
20260503181016 17 202 8.0 16.1 0.00 0.00 0.00 62 1016.1
20260503180045 17 246 4.8 14.5 0.00 0.00 0.00 63 1016.0
20260503175035 16 235 4.8 11.3 0.00 0.00 0.00 66 1016.0
20260503174038 15 239 6.4 12.9 0.00 0.00 0.00 69 1016.0
20260503173019 15 254 4.8 11.3 0.00 0.00 0.00 71 1016.0
20260503172036 15 226 4.8 12.9 0.00 0.00 0.00 72 1016.1
20260503171017 15 242 4.8 11.3 0.00 0.00 0.00 73 1016.1
20260503131037 13 154 0.0 3.2 0.00 0.00 0.00 77 1014.2
20260503081016 13 321 1.6 6.4 0.00 0.00 0.00 76 1015.0
20260503072021 13 288 1.6 3.2 0.00 0.00 0.00 75 1015.2
20260503071039 13 313 1.6 3.2 0.00 0.00 0.00 76 1015.1
20260503055039 13 304 4.8 12.9 0.00 0.00 0.00 75 1015.5
20260503054020 13 249 1.6 4.8 0.00 0.00 0.00 75 1015.5
20260503053015 13 258 1.6 6.4 0.00 0.00 0.00 75 1015.6
20260503052020 13 287 3.2 8.0 0.00 0.00 0.00 74 1015.7
20260503051016 13 275 3.2 6.4 0.00 0.00 0.00 75 1015.6
20260503050037 13 249 3.2 6.4 0.00 0.00 0.00 75 1015.5
20260503045020 13 270 3.2 6.4 0.00 0.00 0.00 74 1015.5
20260503044017 13 248 3.2 8.0 0.00 0.00 0.00 74 1015.5
20260503043022 13 252 3.2 9.7 0.00 0.00 0.00 74 1015.6
20260503042017 13 290 3.2 9.7 0.00 0.00 0.00 74 1015.3
20260503041020 13 273 4.8 8.0 0.00 0.00 0.00 74 1015.2
20260503040017 13 279 3.2 11.3 0.00 0.00 0.00 75 1015.1
20260503035018 13 271 4.8 9.7 0.00 0.00 0.00 74 1015.2
20260503034038 13 247 4.8 9.7 0.00 0.00 0.00 73 1015.2
20260503033022 13 244 3.2 6.4 0.00 0.00 0.00 73 1015.1
20260503032019 13 251 4.8 9.7 0.00 0.00 0.00 73 1014.9
20260503031038 13 260 1.6 6.4 0.00 0.00 0.00 73 1014.8
20260503030037 13 247 4.8 14.5 0.00 0.00 0.00 72 1014.6
20260503025024 13 259 4.8 12.9 0.00 0.00 0.00 72 1014.5
20260503024045 13 276 4.8 14.5 0.00 0.00 0.00 71 1014.4
20260503023022 13 252 4.8 11.3 0.00 0.00 0.00 71 1014.4
20260503022023 14 251 8.0 17.7 0.00 0.00 0.00 70 1014.4
20260503021026 14 248 6.4 16.1 0.00 0.00 0.00 69 1014.5
20260503020017 15 270 4.8 12.9 0.00 0.00 0.00 68 1014.6
20260503015018 15 254 6.4 14.5 0.00 0.00 0.00 68 1014.7
20260503014018 15 247 6.4 16.1 0.00 0.00 0.00 67 1014.5
20260503013021 15 275 4.8 11.3 0.00 0.00 0.00 67 1014.7
20260503012018 15 252 4.8 12.9 0.00 0.00 0.00 66 1014.6
20260503011039 15 248 6.4 14.5 0.00 0.00 0.00 66 1014.8
20260503010036 15 250 4.8 11.3 0.00 0.00 0.00 66 1014.7
20260503005017 15 264 6.4 17.7 0.00 0.00 0.00 65 1014.6
20260503004019 16 244 6.4 12.9 0.00 0.00 0.00 65 1014.6
20260503003020 16 255 6.4 17.7 0.00 0.00 0.00 65 1014.7
20260503002017 16 271 8.0 24.1 0.00 0.00 0.00 65 1014.8
20260503001018 16 269 6.4 16.1 0.00 0.00 0.00 64 1014.8
20260503000019 16 287 8.0 20.9 0.00 0.00 0.00 63 1014.7
20260502235016 16 264 6.4 12.9 0.00 0.00 0.00 62 1014.8
20260502234019 17 252 6.4 16.1 0.00 0.00 0.00 62 1014.8
20260502233040 17 264 8.0 16.1 0.00 0.00 0.00 62 1015.0
20260502232016 17 256 8.0 17.7 0.00 0.00 0.00 62 1015.1
20260502231019 17 201 6.4 16.1 0.00 0.00 0.00 62 1015.1
20260502230020 17 253 4.8 9.7 0.00 0.00 0.00 62 1015.4
20260502225017 17 232 6.4 14.5 0.00 0.00 0.00 64 1015.6
20260502224018 17 258 4.8 12.9 0.00 0.00 0.00 64 1015.6
20260502223019 16 243 6.4 14.5 0.00 0.00 0.00 64 1015.7
20260502222015 17 258 8.0 16.1 0.00 0.00 0.00 64 1016.0
20260502221016 17 246 4.8 11.3 0.00 0.00 0.00 65 1016.1
20260502220040 16 249 6.4 16.1 0.00 0.00 0.00 64 1016.1
20260502215016 17 256 6.4 12.9 0.00 0.00 0.00 64 1016.2
20260502214017 17 201 6.4 14.5 0.00 0.00 0.00 63 1016.3
20260502213018 17 222 6.4 16.1 0.00 0.00 0.00 64 1016.3
20260502212021 16 221 6.4 14.5 0.00 0.00 0.00 64 1016.4